{"data":{"norad_id":31113,"epoch":"2026-09-19T17:54:15.059232Z","epoch_age_seconds":79518,"freshness":"FRESH","line1":"1 31113U 07010A   26262.74600763  .00000055  00000+0  36632-4 0  9991","line2":"2 31113  98.3616 240.9738 0012278 283.0599  76.9214 14.31046374 14167","mean_motion":14.31046374,"eccentricity":0.0012278,"inclination_deg":98.3616,"raan_deg":240.9738,"arg_perigee_deg":283.0599,"mean_anomaly_deg":76.9214,"bstar":3.6632e-5,"rev_number":1416,"period_min":100.62566987085,"perigee_km":779.43648020917,"apogee_km":797.03422415719,"semimajor_km":7166.3723521832,"source":"CELESTRAK","updated_at":"2026-09-20T09:00:33.886179Z"}}